Regional Weather Roundup
Issued by NWS

Home | Current Version | Previous Version | Text Only | Print | Product List | Glossary Off
Versions: 1 2 3 4 5 6 7 8 9 10 11 12 13 14 15 16 17 18 19 20 21 22 23 24 25 26 27 28 29 30 31 32 33 34 35 36 37 38 39 40 41 42 43 44 45 46 47 48 49 50

000
ASUS43 KFSD 011602
RWRSD

WEATHER ROUNDUP FOR SOUTH DAKOTA
NATIONAL WEATHER SERVICE SIOUX FALLS SD
1100 AM CDT WED OCT 01 2014

NOTE: "FAIR" INDICATES FEW OR NO CLOUDS BELOW 12,000 FEET WITH NO
SIGNIFICANT WEATHER AND/OR OBSTRUCTIONS TO VISIBILITY.


SDZ001>005-009-010-012>017-011700-
NORTHWEST AND NORTH CENTRAL SOUTH DAKOTA

CITY           SKY/WX    TMP DP  RH WIND       PRES   REMARKS
BUFFALO          N/A     50  45  83 W24G31    29.78R
FAITH            N/A     59  48  67 W23G29    29.80R
MOBRIDGE       SUNNY     63  51  65 NW15      29.72S
$$

SDZ012>016-024>037-041>051-057-063-072>074-011700-
SOUTHWEST AND SOUTH CENTRAL SOUTH DAKOTA

CITY           SKY/WX    TMP DP  RH WIND       PRES   REMARKS
RAPID CTY ARPT CLOUDY    58  46  64 N14       29.85R
PIERRE         SUNNY     64  51  62 NW17      29.78R
CUSTER         CLOUDY    49  39  68 N3        29.89R
ELLSWORTH AFB  CLOUDY    57  46  67 N20       29.85R
PHILIP         SUNNY     62  48  60 NW17G25   29.83R
PINE RIDGE     SUNNY     58  48  69 W7        29.85R
WINNER         FAIR      65  49  56 N17       29.80R
$$

SDZ004>011-016>023-039-040-011700-
NORTHEAST SOUTH DAKOTA

CITY           SKY/WX    TMP DP  RH WIND       PRES   REMARKS
ABERDEEN       PTSUNNY   63  52  67 W7        29.72R
WATERTOWN      PTSUNNY   63  57  81 W12       29.72S
SISSETON         N/A     65  56  72 W9        29.69R
$$

SDZ017-020-022-023-036>040-048>070-011700-
SOUTHEAST SOUTH DAKOTA

CITY           SKY/WX    TMP DP  RH WIND       PRES   REMARKS
SIOUX FALLS    PTSUNNY   66  60  81 S7        29.72F
HURON          PTSUNNY   66  52  60 NW9       29.74S
CHAMBERLAIN    SUNNY     64  50  59 NW14G20   29.78R
MITCHELL       MOSUNNY   70  54  56 NW12      29.74S
YANKTON        MOSUNNY   66  61  82 S9        29.73S
$$

ABBREVIATIONS USED IN REMARKS
   TC - TEMPERATURE IN CELSIUS
  WCI - WIND CHILL INDEX
   HX - HEAT INDEX
  VSB - VISIBILITY



USA.gov is the U.S. government's official web portal to all federal, state and local government web resources and services.